Time,TemperatureF,DewpointF,PressureIn,WindDirection,WindDirectionDegrees,WindSpeedMPH,WindSpeedGustMPH,Humidity,HourlyPrecipIn,Conditions,Clouds,dailyrainin,SoftwareType,DateUTC
2013-11-17 00:09:00,38.7,28.0,30.30,NE,43,0.0,0.0,66,0.00,,,0.03,weatherlink.com 1.10,2013-11-17 05:09:00,
2013-11-17 00:24:00,40.4,29.0,30.30,SE,128,0.0,2.0,64,0.00,,,0.03,weatherlink.com 1.10,2013-11-17 05:24:00,
2013-11-17 00:39:00,39.9,30.0,30.29,SE,128,1.0,1.0,67,0.00,,,0.03,weatherlink.com 1.10,2013-11-17 05:39:00,
2013-11-17 00:54:00,39.3,29.0,30.29,SE,128,0.0,1.0,68,0.00,,,0.03,weatherlink.com 1.10,2013-11-17 05:54:00,
2013-11-17 01:09:00,39.3,29.0,30.28,SE,128,0.0,1.0,67,0.00,,,0.03,weatherlink.com 1.10,2013-11-17 06:09:00,
2013-11-17 01:24:00,39.9,30.0,30.28,SE,128,1.0,1.0,68,0.00,,,0.03,weatherlink.com 1.10,2013-11-17 06:24:00,
2013-11-17 01:39:00,39.3,31.0,30.29,NE,55,2.0,2.0,71,0.00,,,0.03,weatherlink.com 1.10,2013-11-17 06:39:00,
2013-11-17 01:54:00,37.8,30.0,30.29,NE,49,0.0,3.0,74,0.00,,,0.03,weatherlink.com 1.10,2013-11-17 06:54:00,
2013-11-17 02:09:00,38.4,31.0,30.29,NE,49,0.0,0.0,75,0.00,,,0.03,weatherlink.com 1.10,2013-11-17 07:09:00,
2013-11-17 02:24:00,38.5,31.0,30.28,NE,49,0.0,1.0,73,0.00,,,0.03,weatherlink.com 1.10,2013-11-17 07:24:00,
2013-11-17 02:39:00,39.2,31.0,30.27,NE,48,0.0,0.0,72,0.00,,,0.03,weatherlink.com 1.10,2013-11-17 07:39:00,
2013-11-17 02:54:00,38.2,30.0,30.26,NE,48,0.0,0.0,73,0.00,,,0.03,weatherlink.com 1.10,2013-11-17 07:54:00,
2013-11-17 03:09:00,38.2,30.0,30.26,North,-999,-999.0,-999.0,73,0.00,,,0.00,weatherlink.com 1.10,2013-11-17 08:09:00,
2013-11-17 03:24:00,38.2,30.0,30.27,North,-999,-999.0,-999.0,73,0.00,,,0.00,weatherlink.com 1.10,2013-11-17 08:24:00,
2013-11-17 03:39:00,38.2,30.0,30.26,North,-999,-999.0,-999.0,73,0.00,,,0.00,weatherlink.com 1.10,2013-11-17 08:39:00,
2013-11-17 03:54:00,38.2,30.0,30.26,North,-999,-999.0,-999.0,73,0.00,,,0.00,weatherlink.com 1.10,2013-11-17 08:54:00,
2013-11-17 04:09:00,38.2,30.0,30.27,North,-999,-999.0,-999.0,73,0.00,,,0.00,weatherlink.com 1.10,2013-11-17 09:09:00,
2013-11-17 04:24:00,38.2,30.0,30.26,North,-999,-999.0,-999.0,73,0.00,,,0.00,weatherlink.com 1.10,2013-11-17 09:24:00,
2013-11-17 04:39:00,38.2,30.0,30.26,North,-999,-999.0,-999.0,73,0.00,,,0.00,weatherlink.com 1.10,2013-11-17 09:39:00,
2013-11-17 04:54:00,38.2,30.0,30.26,North,-999,-999.0,-999.0,73,0.00,,,0.00,weatherlink.com 1.10,2013-11-17 09:54:00,
2013-11-17 05:09:00,38.2,30.0,30.25,North,-999,-999.0,-999.0,73,0.00,,,0.00,weatherlink.com 1.10,2013-11-17 10:09:00,
2013-11-17 05:24:00,38.2,30.0,30.25,North,-999,-999.0,-999.0,73,0.00,,,0.00,weatherlink.com 1.10,2013-11-17 10:24:00,
2013-11-17 05:40:00,38.2,30.0,30.25,North,-999,-999.0,-999.0,73,0.00,,,0.00,weatherlink.com 1.10,2013-11-17 10:40:00,
2013-11-17 05:55:00,38.2,30.0,30.25,North,-999,-999.0,-999.0,73,0.00,,,0.00,weatherlink.com 1.10,2013-11-17 10:55:00,
2013-11-17 06:10:00,38.2,30.0,30.25,North,-999,-999.0,-999.0,73,0.00,,,0.00,weatherlink.com 1.10,2013-11-17 11:10:00,
2013-11-17 06:25:00,38.2,30.0,30.24,North,-999,-999.0,-999.0,73,0.00,,,0.00,weatherlink.com 1.10,2013-11-17 11:25:00,
2013-11-17 06:40:00,38.2,30.0,30.24,North,-999,-999.0,-999.0,73,0.00,,,0.00,weatherlink.com 1.10,2013-11-17 11:40:00,
2013-11-17 06:55:00,38.2,30.0,30.24,North,-999,-999.0,-999.0,73,0.00,,,0.00,weatherlink.com 1.10,2013-11-17 11:55:00,
2013-11-17 07:10:00,38.2,30.0,30.22,North,-999,-999.0,-999.0,73,0.00,,,0.00,weatherlink.com 1.10,2013-11-17 12:10:00,
2013-11-17 07:25:00,45.2,35.0,30.23,SSE,166,1.0,7.0,67,0.00,,,0.00,weatherlink.com 1.10,2013-11-17 12:25:00,
2013-11-17 07:40:00,45.5,35.0,30.22,SW,215,2.0,9.0,67,0.00,,,0.00,weatherlink.com 1.10,2013-11-17 12:40:00,
2013-11-17 07:55:00,47.7,36.0,30.23,East,90,0.0,16.0,63,0.00,,,0.00,weatherlink.com 1.10,2013-11-17 12:55:00,
2013-11-17 08:10:00,47.4,35.0,30.22,WSW,245,2.0,7.0,63,0.00,,,0.00,weatherlink.com 1.10,2013-11-17 13:10:00,
2013-11-17 08:25:00,47.6,35.0,30.22,SW,219,0.0,6.0,62,0.00,,,0.00,weatherlink.com 1.10,2013-11-17 13:25:00,
2013-11-17 08:40:00,47.7,36.0,30.23,WSW,240,1.0,6.0,64,0.00,,,0.00,weatherlink.com 1.10,2013-11-17 13:40:00,
2013-11-17 08:55:00,47.5,36.0,30.24,SSW,192,3.0,5.0,65,0.00,,,0.00,weatherlink.com 1.10,2013-11-17 13:55:00,
2013-11-17 09:10:00,47.5,37.0,30.24,SW,231,1.0,14.0,66,0.00,,,0.00,weatherlink.com 1.10,2013-11-17 14:10:00,
2013-11-17 09:25:00,46.8,37.0,30.22,WNW,283,2.0,13.0,68,0.00,,,0.00,weatherlink.com 1.10,2013-11-17 14:25:00,
2013-11-17 09:40:00,47.2,38.0,30.23,NE,44,2.0,9.0,71,0.00,,,0.00,weatherlink.com 1.10,2013-11-17 14:40:00,
2013-11-17 09:55:00,47.8,41.0,30.23,SSW,206,4.0,10.0,76,0.00,,,0.00,weatherlink.com 1.10,2013-11-17 14:55:00,
2013-11-17 10:11:00,47.6,40.0,30.23,SW,215,2.0,13.0,75,0.00,,,0.00,weatherlink.com 1.10,2013-11-17 15:11:00,
2013-11-17 10:25:00,47.8,41.0,30.22,SSE,155,4.0,11.0,78,0.00,,,0.00,weatherlink.com 1.10,2013-11-17 15:25:00,
2013-11-17 10:40:00,46.8,41.0,30.20,West,261,3.0,9.0,80,0.00,,,0.00,weatherlink.com 1.10,2013-11-17 15:40:00,
2013-11-17 10:55:00,46.2,41.0,30.20,SW,225,1.0,10.0,83,0.00,,,0.00,weatherlink.com 1.10,2013-11-17 15:55:00,
2013-11-17 11:10:00,46.9,42.0,30.19,SE,144,0.0,9.0,84,0.00,,,0.00,weatherlink.com 1.10,2013-11-17 16:10:00,
2013-11-17 11:25:00,47.5,42.0,30.18,WSW,253,2.0,9.0,82,0.00,,,0.00,weatherlink.com 1.10,2013-11-17 16:25:00,
2013-11-17 11:40:00,47.7,42.0,30.18,SW,233,2.0,10.0,81,0.00,,,0.00,weatherlink.com 1.10,2013-11-17 16:40:00,
2013-11-17 11:56:00,47.4,42.0,30.18,SSE,155,6.0,16.0,82,0.00,,,0.00,weatherlink.com 1.10,2013-11-17 16:56:00,
2013-11-17 12:11:00,47.0,42.0,30.18,West,263,3.0,12.0,83,0.00,,,0.00,weatherlink.com 1.10,2013-11-17 17:11:00,
2013-11-17 12:26:00,46.0,41.0,30.17,SW,233,1.0,15.0,84,0.00,,,0.00,weatherlink.com 1.10,2013-11-17 17:26:00,
2013-11-17 12:41:00,46.2,42.0,30.16,SW,227,2.0,12.0,85,0.00,,,0.00,weatherlink.com 1.10,2013-11-17 17:41:00,
2013-11-17 12:56:00,46.7,43.0,30.16,WSW,246,4.0,15.0,85,0.00,,,0.00,weatherlink.com 1.10,2013-11-17 17:56:00,
2013-11-17 13:11:00,47.2,43.0,30.14,SW,217,4.0,12.0,85,0.00,,,0.00,weatherlink.com 1.10,2013-11-17 18:11:00,
2013-11-17 13:26:00,47.1,43.0,30.14,SSW,210,2.0,12.0,86,0.00,,,0.00,weatherlink.com 1.10,2013-11-17 18:26:00,
2013-11-17 13:41:00,47.0,43.0,30.14,SW,217,4.0,7.0,87,0.00,,,0.00,weatherlink.com 1.10,2013-11-17 18:41:00,
2013-11-17 13:56:00,47.2,44.0,30.13,WSW,246,2.0,17.0,87,0.00,,,0.00,weatherlink.com 1.10,2013-11-17 18:56:00,
2013-11-17 14:11:00,47.4,44.0,30.13,WSW,242,5.0,11.0,87,0.00,,,0.00,weatherlink.com 1.10,2013-11-17 19:11:00,
2013-11-17 14:26:00,47.3,44.0,30.14,WSW,254,0.0,6.0,88,0.00,,,0.00,weatherlink.com 1.10,2013-11-17 19:26:00,
2013-11-17 14:41:00,47.2,44.0,30.13,West,264,4.0,18.0,88,0.00,,,0.00,weatherlink.com 1.10,2013-11-17 19:41:00,
2013-11-17 14:56:00,47.3,44.0,30.12,SW,231,4.0,10.0,88,0.00,,,0.00,weatherlink.com 1.10,2013-11-17 19:56:00,
2013-11-17 15:11:00,47.2,45.0,30.13,SSE,163,4.0,16.0,90,0.00,,,0.00,weatherlink.com 1.10,2013-11-17 20:11:00,
2013-11-17 15:26:00,47.3,45.0,30.12,NNW,337,3.0,11.0,90,0.00,,,0.00,weatherlink.com 1.10,2013-11-17 20:26:00,
2013-11-17 15:41:00,46.7,44.0,30.11,SSW,210,4.0,11.0,90,0.00,,,0.00,weatherlink.com 1.10,2013-11-17 20:41:00,
2013-11-17 15:56:00,46.0,44.0,30.10,SW,225,7.0,10.0,92,0.00,,,0.00,weatherlink.com 1.10,2013-11-17 20:56:00,
2013-11-17 16:11:00,45.9,44.0,30.09,SSW,195,4.0,8.0,93,0.00,,,0.00,weatherlink.com 1.10,2013-11-17 21:11:00,
2013-11-17 16:26:00,46.1,45.0,30.09,NW,309,1.0,12.0,94,0.00,,,0.00,weatherlink.com 1.10,2013-11-17 21:26:00,
2013-11-17 16:41:00,46.1,45.0,30.08,NE,53,1.0,4.0,94,0.00,,,0.00,weatherlink.com 1.10,2013-11-17 21:41:00,
2013-11-17 16:56:00,45.9,45.0,30.05,WSW,245,3.0,8.0,95,0.00,,,0.00,weatherlink.com 1.10,2013-11-17 21:56:00,
2013-11-17 17:11:00,46.5,46.0,30.06,WNW,298,2.0,4.0,96,0.00,,,0.00,weatherlink.com 1.10,2013-11-17 22:11:00,
2013-11-17 17:26:00,47.4,46.0,30.04,NW,305,0.0,5.0,95,0.00,,,0.00,weatherlink.com 1.10,2013-11-17 22:26:00,
2013-11-17 17:41:00,47.8,47.0,30.05,West,281,2.0,8.0,96,0.00,,,0.00,weatherlink.com 1.10,2013-11-17 22:41:00,
2013-11-17 17:56:00,48.8,48.0,30.04,South,184,1.0,9.0,95,0.00,,,0.00,weatherlink.com 1.10,2013-11-17 22:56:00,
2013-11-17 18:11:00,48.4,47.0,30.02,SW,226,1.0,6.0,95,0.00,,,0.00,weatherlink.com 1.10,2013-11-17 23:11:00,
2013-11-17 18:26:00,47.6,46.0,30.02,West,279,0.0,6.0,95,0.00,,,0.00,weatherlink.com 1.10,2013-11-17 23:26:00,
2013-11-17 18:41:00,47.7,47.0,30.01,WSW,242,0.0,8.0,96,0.00,,,0.00,weatherlink.com 1.10,2013-11-17 23:41:00,
2013-11-17 18:56:00,49.9,49.0,30.00,SE,132,3.0,13.0,95,0.00,,,0.00,weatherlink.com 1.10,2013-11-17 23:56:00,
2013-11-17 19:11:00,50.9,49.0,30.01,WNW,298,5.0,14.0,93,0.00,,,0.00,weatherlink.com 1.10,2013-11-18 00:11:00,
2013-11-17 19:26:00,50.7,49.0,30.00,SW,223,5.0,12.0,92,0.00,,,0.00,weatherlink.com 1.10,2013-11-18 00:26:00,
2013-11-17 19:41:00,49.1,48.0,29.99,SW,236,3.0,13.0,94,0.00,,,0.00,weatherlink.com 1.10,2013-11-18 00:41:00,
2013-11-17 19:56:00,49.2,48.0,29.98,SSW,206,2.0,9.0,95,0.00,,,0.00,weatherlink.com 1.10,2013-11-18 00:56:00,
2013-11-17 20:11:00,49.6,48.0,29.98,SW,219,7.0,8.0,94,0.00,,,0.00,weatherlink.com 1.10,2013-11-18 01:11:00,
2013-11-17 20:26:00,50.0,49.0,29.96,NW,322,9.0,14.0,95,0.01,,,0.01,weatherlink.com 1.10,2013-11-18 01:26:00,
2013-11-17 20:41:00,50.4,49.0,29.95,WNW,299,1.0,11.0,95,0.01,,,0.01,weatherlink.com 1.10,2013-11-18 01:41:00,
2013-11-17 20:56:00,50.3,49.0,29.93,WNW,299,2.0,10.0,95,0.02,,,0.02,weatherlink.com 1.10,2013-11-18 01:56:00,
2013-11-17 21:12:00,49.6,49.0,29.92,SW,215,1.0,10.0,96,0.02,,,0.02,weatherlink.com 1.10,2013-11-18 02:12:00,
2013-11-17 21:27:00,49.8,49.0,29.90,SW,221,0.0,4.0,97,0.01,,,0.02,weatherlink.com 1.10,2013-11-18 02:27:00,
2013-11-17 21:42:00,50.1,49.0,29.89,SSW,199,1.0,4.0,97,0.01,,,0.02,weatherlink.com 1.10,2013-11-18 02:42:00,
2013-11-17 21:57:00,50.6,50.0,29.88,North,351,3.0,5.0,97,0.01,,,0.03,weatherlink.com 1.10,2013-11-18 02:57:00,
2013-11-17 22:12:00,51.0,50.0,29.88,ESE,113,3.0,12.0,96,0.01,,,0.03,weatherlink.com 1.10,2013-11-18 03:12:00,
2013-11-17 22:27:00,51.7,50.0,29.87,West,269,1.0,10.0,95,0.01,,,0.03,weatherlink.com 1.10,2013-11-18 03:27:00,
2013-11-17 22:42:00,50.6,50.0,29.85,WSW,244,1.0,13.0,96,0.01,,,0.03,weatherlink.com 1.10,2013-11-18 03:42:00,
2013-11-17 22:57:00,50.7,50.0,29.84,SW,218,1.0,8.0,97,0.00,,,0.03,weatherlink.com 1.10,2013-11-18 03:57:00,
2013-11-17 23:12:00,50.8,50.0,29.83,NNE,19,0.0,8.0,97,0.01,,,0.04,weatherlink.com 1.10,2013-11-18 04:12:00,
2013-11-17 23:27:00,52.5,51.0,29.82,NNE,17,1.0,14.0,95,0.01,,,0.04,weatherlink.com 1.10,2013-11-18 04:27:00,
2013-11-17 23:42:00,52.2,51.0,29.80,SE,135,3.0,7.0,96,0.02,,,0.05,weatherlink.com 1.10,2013-11-18 04:42:00,
2013-11-17 23:57:00,52.2,52.0,29.77,WNW,290,4.0,14.0,98,0.03,,,0.06,weatherlink.com 1.10,2013-11-18 04:57:00,